Location: Mentone
(34.5413°N, 85.5351°W)
Time: 00:22:09
(UTC-05:00)

Vanguard 3 - All Passes

Search period start: 19 August 2017 00:00
Search period end: 29 August 2017 00:00
Orbit: 509 x 3265 km, 33.3° (Epoch: 17 August)

Date Brightness Start Highest point End Pass type
(mag) Time Alt. Az. Time Alt. Az. Time Alt. Az.
19 Aug - 01:21:42 10° W 01:38:24 84° S 01:47:43 10° E visible
19 Aug - 03:39:58 10° W 03:52:07 72° SSW 03:58:42 10° ESE visible
19 Aug - 05:57:14 10° W 06:03:26 25° SW 06:07:40 10° SSE daylight
19 Aug - 19:38:44 10° S 19:51:47 22° SE 20:04:03 10° E visible
19 Aug - 21:48:26 10° SW 22:07:08 50° SSE 22:21:17 10° E visible
20 Aug - 00:04:12 10° WSW 00:22:53 78° SSE 00:34:15 10° E visible
20 Aug - 02:22:36 10° W 02:37:40 84° S 02:45:50 10° E visible
20 Aug - 04:40:26 10° W 04:50:20 47° SSW 04:56:03 10° SE visible
20 Aug - 18:30:55 10° SSE 18:36:15 12° SE 18:41:37 10° ESE daylight
20 Aug - 20:33:52 10° SSW 20:51:01 38° SE 21:05:55 10° E visible
20 Aug - 22:47:17 10° WSW 23:06:52 68° SSE 23:20:19 10° E visible
21 Aug - 01:04:55 10° W 01:22:31 85° S 01:32:36 10° E visible
21 Aug - 03:23:23 10° W 03:36:32 69° SSW 03:43:40 10° ESE visible
21 Aug - 05:41:20 10° W 05:47:49 23° SW 05:52:16 10° S visible
21 Aug - 19:20:59 10° S 19:35:08 26° SE 19:48:57 10° E visible
21 Aug - 21:31:23 10° SW 21:50:33 56° SSE 22:05:47 10° E visible
21 Aug - 23:47:21 10° WSW 00:06:43 81° S 00:18:59 10° E visible
22 Aug - 02:05:52 10° W 02:21:56 82° S 02:30:46 10° ESE visible
22 Aug - 04:24:03 10° W 04:34:42 43° SSW 04:40:53 10° SE visible
22 Aug - 18:11:11 10° SSE 18:19:42 15° SE 18:28:29 10° ESE daylight
22 Aug - 20:16:45 10° SSW 20:34:17 43° SE 20:50:20 10° E visible
22 Aug - 22:30:26 10° WSW 22:50:25 72° SSE 23:04:51 10° E visible
23 Aug - 00:48:07 10° W 01:06:33 86° S 01:17:25 10° E visible
23 Aug - 03:06:44 10° W 03:20:50 65° SSW 03:28:34 10° ESE visible
23 Aug - 05:25:23 10° W 05:32:03 21° SW 05:36:44 10° S visible
23 Aug - 19:03:38 10° S 19:18:23 30° SE 19:33:29 10° E daylight
23 Aug - 21:14:33 10° SW 21:33:53 61° SSE 21:50:07 10° E visible
23 Aug - 23:30:35 10° WSW 23:50:28 84° S 00:03:37 10° E visible
24 Aug - 01:49:06 10° W 02:06:04 80° SSW 02:15:39 10° ESE visible
24 Aug - 04:07:35 10° W 04:18:56 40° SW 04:25:38 10° SSE visible
24 Aug - 17:52:56 10° SSE 18:03:02 18° SE 18:13:56 10° E daylight
24 Aug - 19:59:54 10° SSW 20:17:29 47° SE 20:34:33 10° E visible
24 Aug - 22:13:44 10° WSW 22:33:54 76° SSE 22:49:18 10° E visible
25 Aug - 00:31:21 10° W 00:50:28 86° S 01:02:11 10° E visible
25 Aug - 02:50:00 10° W 03:04:59 61° SSW 03:13:23 10° SE visible
25 Aug - 05:09:25 10° W 05:16:12 19° SW 05:21:05 10° S visible
25 Aug - 18:46:39 10° SSW 19:01:34 34° SE 19:17:43 10° E daylight
25 Aug - 20:57:55 10° SW 21:17:09 65° SSE 21:34:21 10° E visible
25 Aug - 23:13:55 10° W 23:34:08 85° S 23:48:11 10° E visible
26 Aug - 01:32:19 10° W 01:50:06 77° SSW 02:00:27 10° ESE visible
26 Aug - 03:51:04 10° W 04:03:01 37° SW 04:10:16 10° SSE visible
26 Aug - 17:35:25 10° S 17:46:19 21° SE 17:58:41 10° E daylight
26 Aug - 19:43:17 10° SW 20:00:38 52° SSE 20:18:36 10° E visible
26 Aug - 21:57:11 10° WSW 22:17:19 80° SSE 22:33:39 10° E visible
27 Aug - 00:14:38 10° W 00:34:18 85° S 00:46:52 10° E visible
27 Aug - 02:33:15 10° WNW 02:49:01 58° SSW 02:58:07 10° SE visible
27 Aug - 04:53:30 10° W 05:00:14 17° SW 05:05:15 10° SSW visible
27 Aug - 18:29:58 10° SSW 18:44:43 38° SE 19:01:43 10° E daylight
27 Aug - 20:41:28 10° SW 21:00:23 69° SSE 21:18:27 10° E visible
27 Aug - 22:57:21 10° W 23:17:44 86° S 23:32:41 10° E visible
28 Aug - 01:15:31 10° W 01:34:00 74° SSW 01:45:09 10° ESE visible
28 Aug - 03:34:31 10° W 03:46:59 35° SW 03:54:46 10° SSE visible
28 Aug - 17:18:22 10° S 17:29:35 24° SE 17:43:01 10° E daylight
28 Aug - 19:26:53 10° SW 19:43:46 56° SSE 20:02:30 10° ENE visible
28 Aug - 21:40:47 10° WSW 22:00:41 82° SSE 22:17:54 10° E visible
